TimeCDT,TemperatureF,Dew PointF,Humidity,Sea Level PressureIn,VisibilityMPH,Wind Direction,Wind SpeedMPH,Gust SpeedMPH,PrecipitationIn,Events,Conditions,WindDirDegrees,DateUTC
12:56 AM,-9999,-9999,N/A,30.18,10.0,Calm,Calm,-,N/A,,Clear,0,2013-08-21 05:56:00
1:56 AM,-9999,-9999,N/A,30.17,7.0,Calm,Calm,-,N/A,,Clear,0,2013-08-21 06:56:00
2:56 AM,-9999,-9999,N/A,30.17,6.0,Calm,Calm,-,N/A,,Haze,0,2013-08-21 07:56:00
3:56 AM,117.9,-9999,N/A,30.14,4.0,Calm,Calm,-,N/A,,Haze,0,2013-08-21 08:56:00
4:56 AM,-9999,-9999,N/A,30.17,3.0,Calm,Calm,-,N/A,,Clear,0,2013-08-21 09:56:00
5:56 AM,115.0,-9999,N/A,30.17,6.0,Calm,Calm,-,N/A,,Haze,0,2013-08-21 10:56:00
6:56 AM,128.8,-9999,N/A,30.18,5.0,Calm,Calm,-,N/A,,Haze,0,2013-08-21 11:56:00
7:56 AM,-9999,-9999,N/A,30.22,10.0,Calm,Calm,-,N/A,,Clear,0,2013-08-21 12:56:00
8:56 AM,-9999,-9999,N/A,30.22,10.0,Calm,Calm,-,N/A,,Clear,0,2013-08-21 13:56:00
9:56 AM,81.0,73.9,79,30.23,10.0,Calm,Calm,-,N/A,,Mostly Cloudy,0,2013-08-21 14:56:00
10:48 AM,82.4,75.2,79,30.22,10.0,Variable,3.5,-,N/A,,Mostly Cloudy,0,2013-08-21 15:48:00
10:56 AM,82.9,73.9,74,30.22,10.0,SW,8.1,-,N/A,,Scattered Clouds,230,2013-08-21 15:56:00
11:12 AM,82.4,73.4,74,30.22,10.0,Variable,5.8,-,N/A,Thunderstorm,Partly Cloudy,0,2013-08-21 16:12:00
11:27 AM,80.6,73.4,79,30.22,10.0,WSW,3.5,-,N/A,,Partly Cloudy,240,2013-08-21 16:27:00
11:56 AM,79.9,73.9,82,30.22,10.0,SW,5.8,-,N/A,,Clear,220,2013-08-21 16:56:00
12:11 PM,80.6,75.2,84,30.21,10.0,WSW,5.8,-,N/A,Thunderstorm,Clear,240,2013-08-21 17:11:00
12:56 PM,73.9,70.9,90,30.23,10.0,Calm,Calm,-,0.00,Rain-Thunderstorm,Light Thunderstorms and Rain,0,2013-08-21 17:56:00
1:11 PM,75.2,66.2,73,30.22,-9999.0,SE,9.2,-,N/A,,Unknown,130,2013-08-21 18:11:00
1:56 PM,79.9,68.9,69,30.21,10.0,SSW,6.9,-,N/A,,Clear,200,2013-08-21 18:56:00
2:56 PM,81.9,70.0,67,30.18,10.0,SW,10.4,-,N/A,,Clear,220,2013-08-21 19:56:00
3:56 PM,81.9,70.0,67,30.14,10.0,South,5.8,-,N/A,,Mostly Cloudy,180,2013-08-21 20:56:00
4:48 PM,82.4,71.6,70,30.16,10.0,South,8.1,-,N/A,Thunderstorm,Scattered Clouds,170,2013-08-21 21:48:00
4:56 PM,81.0,70.0,69,30.15,10.0,South,9.2,-,N/A,Thunderstorm,Mostly Cloudy,180,2013-08-21 21:56:00
5:12 PM,80.6,69.8,70,30.15,10.0,South,9.2,-,N/A,,Mostly Cloudy,170,2013-08-21 22:12:00
5:56 PM,81.0,68.9,67,30.12,10.0,SW,6.9,-,N/A,,Clear,220,2013-08-21 22:56:00
6:56 PM,77.9,70.0,76,30.12,10.0,Calm,Calm,-,N/A,,Clear,0,2013-08-21 23:56:00
7:56 PM,72.9,70.0,91,30.15,10.0,Calm,Calm,-,N/A,,Clear,0,2013-08-22 00:56:00
8:56 PM,68.9,66.9,93,30.17,6.0,Calm,Calm,-,N/A,,Clear,0,2013-08-22 01:56:00
9:56 PM,66.9,64.9,93,30.16,0.8,Calm,Calm,-,N/A,,Clear,0,2013-08-22 02:56:00
10:03 PM,66.2,66.2,100,30.17,1.8,Calm,Calm,-,N/A,,Clear,0,2013-08-22 03:03:00
10:10 PM,66.2,66.2,100,30.17,3.0,Calm,Calm,-,N/A,,Clear,0,2013-08-22 03:10:00
10:56 PM,65.8,64.9,97,30.17,2.0,Calm,Calm,-,N/A,,Clear,0,2013-08-22 03:56:00
11:19 PM,66.2,64.4,94,30.18,5.0,Calm,Calm,-,N/A,,Clear,0,2013-08-22 04:19:00
11:56 PM,65.8,64.9,97,30.19,2.5,Calm,Calm,-,N/A,,Clear,0,2013-08-22 04:56:00